[TLELIST] Archives

 

[list_settings.list_name] Current TLEs

June 26th 2009 PST

HST 1 20580U 90037B 09174.09806668 +.00000242 +00000-0 +57594-5 0 04110 2 20580 028.4694 063.7168 0003244 344.9911 015.0591 15.00810340850742 ISS (ZARYA) 1 25544U 98067A 09177.13789834 .00010968 00000-0 79570-4 0 1063 2 25544 051.6410 260.9489 0008111 151.0444 297.2598 15.73986904607363 CXO 1 25867U 99040B 09177.04166667 +.00000084 +00000-0 +10000-3 0 03394 2 25867 065.4783 068.7929 7542134 275.8612 354.5032 00.37807641005048 ____________________________________________________________________ These 2-Line ...Continue Reading

[list_settings.list_name] Current TLEs

June 25th 2009 PST

HST 1 20580U 90037B 09174.09806668 +.00000242 +00000-0 +57594-5 0 04110 2 20580 028.4694 063.7168 0003244 344.9911 015.0591 15.00810340850742 ISS (ZARYA) 1 25544U 98067A 09176.12076860 .00011438 00000-0 82865-4 0 1018 2 25544 051.6409 266.1715 0008163 147.3734 293.6779 15.73965338607200 CXO 1 25867U 99040B 09174.41666667 +.00000084 +00000-0 +10000-3 0 03386 2 25867 065.4781 068.9336 7533128 275.8726 357.1107 00.37797671005031 ____________________________________________________________________ These 2-Line ...Continue Reading

[list_settings.list_name] Current TLEs

June 24th 2009 PST

HST 1 20580U 90037B 09171.17207162 +.00000280 +00000-0 +86317-5 0 04106 2 20580 028.4692 082.8103 0003268 316.0487 044.0005 15.00810087850307 ISS (ZARYA) 1 25544U 98067A 09173.83735112 +.00012031 +00000-0 +87110-4 0 00887 2 25544 051.6407 277.8964 0008471 139.7653 314.3202 15.73911838606847 CXO 1 25867U 99040B 09174.41666667 +.00000084 +00000-0 +10000-3 0 03386 2 25867 065.4781 068.9336 7533128 275.8726 357.1107 00.37797671005031 ____________________________________________________________________ These 2-Line ...Continue Reading

[list_settings.list_name] Current TLEs

June 23rd 2009 PST

HST 1 20580U 90037B 09171.17207162 +.00000280 +00000-0 +86317-5 0 04106 2 20580 028.4692 082.8103 0003268 316.0487 044.0005 15.00810087850307 ISS (ZARYA) 1 25544U 98067A 09174.14871825 .00012009 00000-0 86933-4 0 904 2 25544 051.6408 276.2970 0008429 140.7110 278.7997 15.73919596606899 CXO 1 25867U 99040B 09166.50000000 +.00000349 +00000-0 +10000-3 0 03373 2 25867 065.4342 069.2704 7524095 275.9201 359.3065 00.37808270005001 ____________________________________________________________________ These 2-Line ...Continue Reading

[list_settings.list_name] Current TLEs

June 22nd 2009 PST

HST 1 20580U 90037B 09171.17207162 +.00000280 +00000-0 +86317-5 0 04106 2 20580 028.4692 082.8103 0003268 316.0487 044.0005 15.00810087850307 ISS (ZARYA) 1 25544U 98067A 09173.13455091 .00012276 00000-0 88853-4 0 847 2 25544 051.6413 281.5032 0008545 137.1128 292.1895 15.73895090606733 CXO 1 25867U 99040B 09166.50000000 +.00000349 +00000-0 +10000-3 0 03373 2 25867 065.4342 069.2704 7524095 275.9201 359.3065 00.37808270005001 ____________________________________________________________________ These 2-Line ...Continue Reading

[list_settings.list_name] Current TLEs

June 21st 2009 PST

HST 1 20580U 90037B 09168.24607405 +.00000282 +00000-0 +88263-5 0 04096 2 20580 028.4682 101.9284 0003301 281.8128 078.2090 15.00809493849869 ISS (ZARYA) 1 25544U 98067A 09171.81329911 .00012791 00000-0 92510-4 0 758 2 25544 051.6412 288.2861 0008641 132.2322 005.8678 15.73863182606527 CXO 1 25867U 99040B 09166.50000000 +.00000349 +00000-0 +10000-3 0 03373 2 25867 065.4342 069.2704 7524095 275.9201 359.3065 00.37808270005001 ____________________________________________________________________ These 2-Line ...Continue Reading

[list_settings.list_name] Current TLEs

June 20th 2009 PST

HST 1 20580U 90037B 09168.24607405 +.00000282 +00000-0 +88263-5 0 04096 2 20580 028.4682 101.9284 0003301 281.8128 078.2090 15.00809493849869 ISS (ZARYA) 1 25544U 98067A 09170.79758185 .00013009 00000-0 94111-4 0 698 2 25544 051.6412 293.5008 0008737 128.5784 010.7348 15.73836960606360 CXO 1 25867U 99040B 09166.50000000 +.00000349 +00000-0 +10000-3 0 03373 2 25867 065.4342 069.2704 7524095 275.9201 359.3065 00.37808270005001 ____________________________________________________________________ These 2-Line ...Continue Reading

[list_settings.list_name] Current TLEs

June 19th 2009 PST

HST 1 20580U 90037B 09168.24607405 +.00000282 +00000-0 +88263-5 0 04096 2 20580 028.4682 101.9284 0003301 281.8128 078.2090 15.00809493849869 ISS (ZARYA) 1 25544U 98067A 09168.89338167 +.00013743 +00000-0 +99372-4 0 00587 2 25544 051.6413 303.2759 0008853 122.3216 021.0594 15.73787424606069 CXO 1 25867U 99040B 09166.50000000 +.00000349 +00000-0 +10000-3 0 03373 2 25867 065.4342 069.2704 7524095 275.9201 359.3065 00.37808270005001 ____________________________________________________________________ These 2-Line ...Continue Reading

[list_settings.list_name] Current TLEs

June 18th 2009 PST

HST 1 20580U 90037B 09165.32007629 +.00000282 +00000-0 +88263-5 0 04083 2 20580 028.4682 121.0194 0003302 250.7160 109.3026 15.00808819849422 ISS (ZARYA) 1 25544U 98067A 09168.63421691 .00013708 00000-0 99160-4 0 568 2 25544 051.6411 304.6056 0008850 121.1576 352.9032 15.73779754606021 CXO 1 25867U 99040B 09166.50000000 +.00000349 +00000-0 +10000-3 0 03373 2 25867 065.4342 069.2704 7524095 275.9201 359.3065 00.37808270005001 ____________________________________________________________________ These 2-Line ...Continue Reading

[list_settings.list_name] Current TLEs

June 17th 2009 PST

HST 1 20580U 90037B 09165.32007629 +.00000282 +00000-0 +88263-5 0 04083 2 20580 028.4682 121.0194 0003302 250.7160 109.3026 15.00808819849422 ISS (ZARYA) 1 25544U 98067A 09167.61639193 .00013346 00000-0 96788-4 0 496 2 25544 051.6412 309.8305 0008893 117.7980 345.8315 15.73749628605866 CXO 1 25867U 99040B 09166.50000000 +.00000349 +00000-0 +10000-3 0 03373 2 25867 065.4342 069.2704 7524095 275.9201 359.3065 00.37808270005001 ____________________________________________________________________ These 2-Line ...Continue Reading
  • This mailing list is a public mailing list - anyone may join or leave, at any time.
  • This mailing list is announce-only.

International Space Station (ISS) / Hubble Space Telescope (HST) / Chandra X-Ray Observatory Orbital Data via EMAIL

Privacy Policy:

Private list